Location: Daleschitz
(49.7881°N, 14.4808°E)
Time: 01:42:10
(UTC+00:00)

Daily predictions for brighter satellites

Satellite Brightness Start Highest point End
(mag) Time Altitude Azimuth Time Altitude Azimuth Time Altitude Azimuth
Cosmos 2333 Rocket 4.3 02:51:55 20° NNE 02:52:45 20° NE 02:56:57 10° E
Cosmos 2360 Rocket 4.4 02:58:26 16° NNE 02:59:37 17° NNE 03:03:09 10° ENE
USA 234 3.8 03:04:56 10° ENE 03:10:26 49° NNE 03:10:26 49° NNE
Cosmos 2219 Rocket 4.5 03:16:26 13° N 03:18:22 15° NNE 03:21:38 10° ENE
Cosmos 2322 Rocket 4.1 03:19:55 19° N 03:22:00 23° NE 03:26:26 10° E
USA 59 Rocket 1.7 03:34:44 28° SE 03:34:44 28° SE 03:37:04 10° SE
NOSS 3-1 (C) 4.0 03:34:05 52° NNW 03:35:58 72° NE 03:44:33 10° SE
CZ-2C R/B 4.4 03:35:35 10° N 03:36:58 19° N 03:36:58 19° N
Cosmos 1833 Rocket 4.1 03:46:20 26° N 03:46:20 26° N 03:49:03 10° NNE
ACS3 Solar Sail 4.0 03:40:18 10° N 03:40:26 11° N 03:40:26 11° N
Timation 1 Rocket 4.2 03:48:09 69° SSW 03:48:57 89° ESE 03:54:58 10° NNE
SL-16 R/B 3.1 03:46:48 30° N 03:49:08 45° NE 03:54:34 10° SE
Cosmos 2082 Rocket 2.4 03:49:32 33° S 03:52:06 69° ESE 03:57:41 10° NNE
NOSS 2-1 (C) 4.2 03:58:58 43° SE 03:58:58 43° SE 04:02:09 10° SE
COSMOS 2455 2.7 03:58:09 68° WNW 03:58:47 75° WSW 04:04:48 10° SSE
NOSS 3-4 (A) 4.0 04:02:31 37° NNW 04:02:31 37° NNW 04:07:43 10° NE
NOSS 3-4 (C) 4.0 04:02:40 37° NNW 04:02:40 37° NNW 04:07:53 10° NE
ATLAS 3B R/B 4.2 03:59:03 24° NNW 04:02:14 31° NNE 04:08:59 10° ENE
IRS-1D 3.9 03:57:35 10° NNE 04:02:33 61° ESE 04:07:33 10° S
Cosmos 1898 Rocket 3.3 04:02:27 75° NW 04:02:50 82° WSW 04:08:06 10° SSE
FengYun 1-2 T 4.2 03:59:39 10° NNE 04:05:22 90° ESE 04:11:02 10° SSW
Cosmos 468 Rocket 3.8 04:10:58 66° W 04:11:11 67° WNW 04:16:24 10° NNE
BREEZE-M DEB (TANK) 4.1 04:12:07 41° SE 04:12:07 41° SE 04:13:59 10° E
Cosmos 1980 Rocket 3.3 04:14:14 27° SSW 04:14:14 27° SSW 04:17:10 10° S
Cosmos 2278 4.2 04:09:08 25° NNW 04:12:19 57° NE 04:17:51 10° SE
SWAS 4.4 04:15:30 67° S 04:15:30 67° S 04:19:04 10° SSE
Cosmos 2369 3.7 04:16:15 53° W 04:16:48 55° WSW 04:22:18 10° S
Cosmos-2242 4.3 04:13:09 11° N 04:17:02 38° ENE 04:20:58 10° SE
BREEZE-M DEB (TANK) 3.2 04:20:47 51° ESE 04:20:47 51° ESE 04:23:54 10° E
COSMO-SKYMED 1 2.4 04:17:22 10° SSE 04:21:29 82° ENE 04:22:50 42° N
Aureole 1 Rocket 4.4 04:20:44 36° NW 04:23:18 52° WSW 04:30:28 10° S
Cosmos 2058 Rocket 3.9 04:19:08 10° N 04:23:26 49° ENE 04:27:42 10° SSE
SKYMED 2 3.4 04:19:26 10° S 04:23:45 67° WSW 04:24:01 65° WNW
Tiangong 0.6 04:27:21 13° S 04:27:21 13° S 04:28:18 10° SSE
Cosmos 1484 Rocket 4.3 04:24:24 10° NNE 04:27:31 32° E 04:30:35 10° SSE
Cosmos 1937 Rocket 3.3 04:25:55 43° NW 04:27:33 70° WSW 04:32:37 10° SSE
Cosmos 858 Rocket 4.4 04:24:54 30° NNW 04:27:34 88° ENE 04:32:45 10° SSE
NOAA 12 4.0 04:23:29 10° NNE 04:28:49 90° ESE 04:34:05 10° SSW
SJ-11-01 4.2 04:25:04 10° N 04:29:41 57° WNW 04:34:15 10° SSW
Cosmos 1346 Rocket 4.3 04:33:28 22° N 04:33:28 22° N 04:34:53 10° N
Cosmos 220 Rocket 3.8 04:28:08 12° SSW 04:31:56 86° ESE 04:36:04 10° NNE
Okean 1 4.3 04:29:24 15° N 04:32:08 40° ENE 04:35:30 10° SSE
Cosmos 372 Rocket 4.4 04:33:38 38° WSW 04:33:38 38° WSW 04:38:00 10° S
Cosmos 2333 Rocket 2.4 04:33:56 20° NNW 04:38:05 74° ENE 04:43:49 10° SE
NOSS 3-1 (A) 4.0 04:37:47 24° NW 04:42:32 83° NE 04:51:18 10° SE
Cosmos 1606 Rocket 3.9 04:43:12 41° W 04:43:12 41° W 04:47:20 10° SSW
Cosmos 2360 Rocket 2.7 04:40:11 15° NNW 04:44:50 59° ENE 04:50:22 10° SE
Cosmos 2026 Rocket 3.9 04:41:41 10° S 04:47:44 90° W 04:53:52 10° N
BREEZE M DEB (TANK) 4.5 04:48:01 10° S 04:49:34 15° SE 04:51:42 10° E
Cosmos 2237 Rocket 4.5 04:49:30 10° N 04:52:20 14° NNE 04:55:11 10° ENE
USA 234 3.7 04:47:23 10° E 04:53:41 51° N 04:57:47 22° NW
DMSP B5D1-3 4.5 04:48:37 10° SSE 04:53:45 90° WSW 04:58:54 10° NNW
Helios 1A Rocket 2.8 04:52:38 10° S 04:55:46 40° WSW 04:55:46 40° WSW
IGS 5A 3.8 04:54:34 10° NNE 04:58:34 65° ESE 05:02:32 10° S
SeaSat 1 4.2 04:56:00 10° N 04:58:20 16° NNW 04:58:20 16° NNW
RUBIN 8/PSLV 4.4 04:58:22 10° N 05:02:41 68° WNW 05:06:56 10° SSW
Cosmos 2219 Rocket 2.9 04:58:09 10° NNW 05:03:41 52° NE 05:09:11 10° SE
SL-4 R/B 1.3 05:03:15 40° WNW 05:04:16 74° NNE 05:07:27 10° E
ATLAS 5 CENTAUR R/B 3.0 05:05:56 13° NNW 05:05:56 13° NNW 05:07:30 10° NNE
Cosmos 2322 Rocket 2.2 05:01:43 13° NNW 05:06:50 90° ENE 05:12:31 10° SSE
Cosmos 1553 Rocket 4.2 05:01:34 10° N 05:07:58 82° E 05:14:24 10° S
Cosmos 1743 4.4 05:05:53 10° SSE 05:08:44 29° E 05:11:36 10° NNE
Cosmos 1726 Rocket 4.3 05:08:07 24° NW 05:09:32 30° W 05:13:15 10° SSW
Meteor 1-26 Rocket 4.1 05:04:14 10° NNW 05:09:41 66° W 05:15:16 10° S
Cosmos 1092 Rocket 3.9 05:05:21 10° SSW 05:11:37 71° WNW 05:17:52 10° N
Meteor 2-3 Rocket 3.8 05:06:07 10° SSW 05:11:43 53° WNW 05:17:17 10° N
Cosmos 1733 3.4 05:11:05 10° SSE 05:12:47 30° E 05:14:29 10° NNE
CZ-4 R/B 4.2 05:10:09 10° N 05:14:25 36° WNW 05:18:38 10° SW
CZ-2C R/B 4.4 05:15:18 10° NNW 05:16:11 12° NNW 05:16:11 12° NNW
Cosmos 2333 4.3 05:15:25 10° NNW 05:21:13 85° ENE 05:26:55 10° SSE
USA 59 Rocket 1.7 05:20:26 15° WSW 05:21:19 15° WSW 05:24:03 10° SSW
Cosmos 841 Rocket 4.0 05:19:27 10° WSW 05:24:17 36° NW 05:29:09 10° N
COSMOS 2406 3.4 05:19:24 10° SW 05:24:53 49° NW 05:30:25 10° NNE
Cosmos 2221 3.0 05:21:06 10° N 05:25:13 58° ENE 05:29:17 10° SSE
Cosmos 1626 Rocket 3.6 05:22:59 10° S 05:27:25 89° ESE 05:31:51 10° N
Cosmos 2151 4.0 05:25:24 10° SSE 05:29:18 47° E 05:33:15 10° NNE
Cosmos 1833 Rocket 4.5 05:28:01 12° NW 05:29:19 13° NNW 05:31:50 10° N
Cosmos 1892 Rocket 4.2 05:26:47 10° SW 05:30:41 31° WNW 05:34:39 10° N
COSMOS 2428 4.0 05:27:13 10° NNW 05:32:28 36° NE 05:37:41 10° ESE
SL-16 R/B 2.8 05:28:40 13° NW 05:33:08 36° WSW 05:38:15 10° S
Cosmos 2082 Rocket 3.1 05:31:56 10° WSW 05:36:40 27° NW 05:41:26 10° NNE
CZ-2D R/B 3.1 05:34:58 10° NNE 05:38:09 70° ESE 05:41:17 10° S
Cosmos 158 Rocket 4.2 05:33:20 10° SSW 05:38:39 78° ESE 05:43:55 10° NNE
Cosmos 1125 Rocket 3.8 05:37:29 10° NNW 05:42:46 69° ENE 05:47:58 10° SSE
COSMOS 2455 4.5 05:41:19 12° WNW 05:43:42 15° WSW 05:46:53 10° SW
Cosmos 2266 Rocket 4.4 05:38:59 10° S 05:45:20 72° E 05:51:39 10° NNE
Okean 1-7 Rocket 4.5 05:42:33 10° S 05:46:56 54° E 05:51:19 10° NNE
NOSS 8 (A) 4.4 05:45:59 14° NW 05:48:21 52° SW 05:51:31 10° SSE
Cosmos 405 Rocket 2.3 05:46:00 10° SSW 05:49:11 53° WNW 05:52:26 10° N
Orbus 7S? 2.8 05:47:32 13° WNW 05:49:42 55° SW 05:52:37 10° SE
Cosmos 1238 Rocket 3.4 05:50:59 10° N 05:53:44 39° ENE 05:56:26 10° SSE
Cosmos-2242 4.1 05:50:30 10° NW 05:53:51 23° W 05:57:10 10° SW
ATLAS 3B R/B 3.5 05:46:55 10° NW 05:54:42 57° NE 06:02:09 10° ESE
Cosmos 1842 3.6 05:53:31 10° N 05:56:49 54° ENE 06:00:04 10° SSE
Cosmos 1812 Rocket 3.5 05:53:02 10° NNW 05:57:20 69° W 06:01:38 10° S
COSMO-SKYMED 1 4.4 05:55:56 10° WSW 05:57:22 12° W 05:58:48 10° WNW
Cosmos 1707 2.2 05:54:56 10° N 05:58:05 84° E 06:01:13 10° S
Cosmos 1437 Rocket 2.4 05:55:21 10° NNW 05:58:49 85° W 06:02:16 10° S
Cosmos 1484 Rocket 3.8 05:57:39 10° NNW 06:00:14 20° WNW 06:02:48 10° WSW
Cosmos 2058 Rocket 4.4 05:57:42 10° NW 06:00:55 20° W 06:04:05 10° SW
AQUARIUS 4.1 05:59:36 10° NNE 06:04:03 87° WNW 06:08:28 10° SSW
Cosmos 1602 Rocket 3.6 06:00:56 10° SSW 06:05:21 71° W 06:09:49 10° N
CORIOLIS 4.3 06:05:49 10° N 06:11:04 56° WNW 06:16:19 10° SW
ARIANE 5 R/B 2.6 06:07:17 10° NNE 06:12:29 71° WNW 06:17:40 10° SSW
